カタログに戻る

DELTA 1 DEB

運用中SSO
NORAD 20029·DEBRIS·🇺🇸 United States

打ち上げ Mar 5, 1978 から Vandenberg Space Force Base

Loading…

次のパス (今後24時間)

TLE

最新Source: Space-Track

元期: Sep 14, 2026, 22:12 UTC

1 20029U 78026HS  26257.92567446  .00000762  00000-0  22937-3 0  9992
2 20029  98.5814 282.5530 0060466  71.8565  47.4378 14.44442785954283

AllMySatでDELTA 1 DEBをリアルタイム追跡

Download on the App Store